Location: Unspecified
(0.0000°N, 0.0000°E)
Time: 00:20:28
(UTC+02:00)

GPS 2-15 Rocket1 - Visible Passes

Search period start: 02 October 2014 00:00
Search period end: 12 October 2014 00:00
Orbit: 628 x 681 km, 19.8° (Epoch: 01 October)

Date Brightness Start Highest point End Pass type
(mag) Time Alt. Az. Time Alt. Az. Time Alt. Az.
02 Oct 5.2 21:17:31 10° NNW 21:19:46 15° N 21:19:46 15° N visible
03 Oct 5.3 21:44:13 10° NW 21:45:49 18° NNW 21:45:49 18° NNW visible
04 Oct 5.0 20:28:15 10° NNW 20:31:23 17° NNE 20:34:10 11° NE visible
04 Oct 5.9 22:11:21 10° NW 22:11:55 13° NW 22:11:55 13° NW visible
05 Oct 4.2 20:55:03 10° NW 20:59:14 29° NNE 21:00:19 26° NE visible
06 Oct 3.4 21:22:15 10° WNW 21:26:31 53° N 21:26:31 53° N visible
07 Oct 5.8 06:10:59 10° S 06:11:23 10° SSE 06:11:47 10° SSE visible
07 Oct 4.1 20:05:53 10° NW 20:10:15 33° NNE 20:14:34 10° E visible
07 Oct 4.5 21:49:50 10° WNW 21:52:46 37° W 21:52:46 37° W visible
08 Oct 5.5 06:36:25 10° SSW 06:39:22 16° SSE 06:42:19 10° SE visible
08 Oct 3.2 20:33:09 10° WNW 20:37:58 64° NNE 20:41:18 19° E visible
08 Oct 5.8 22:17:51 10° W 22:19:03 17° W 22:19:03 17° W visible
09 Oct 4.9 07:03:10 10° SW 07:07:11 27° SSE 07:11:15 10° ESE visible
09 Oct 3.4 21:00:48 10° WNW 21:05:37 66° SSW 21:07:36 34° SE visible
10 Oct 5.3 05:50:02 17° S 05:50:25 18° SSE 05:53:34 10° ESE visible
10 Oct 4.3 21:28:54 10° W 21:33:18 34° SSW 21:33:55 33° S visible
11 Oct 4.6 06:16:15 22° SSW 06:18:13 30° SSE 06:22:22 10° E visible
11 Oct 3.7 20:11:46 10° W 20:16:36 58° SSW 20:21:21 10° ESE visible
11 Oct 5.4 21:57:34 10° WSW 22:00:14 19° SSW 22:00:14 19° SSW visible
